| time (UTC) | temp C | wind direction | speed KPH | gust KPH | rain 1hr cm | rain 24hr cm | rain mn cm | humidity % | barometer mb |
| 20260505071548 | 5 | 23 | 0.0 | 4.8 | 0.00 | 0.15 | 0.05 | 93 | 1004.3 |
| 20260505071347 | 5 | 23 | 0.0 | 4.8 | 0.00 | 0.15 | 0.05 | 93 | 1004.4 |
| 20260505071137 | 5 | 23 | 0.0 | 4.8 | 0.00 | 0.15 | 0.05 | 93 | 1004.6 |
| 20260505070611 | 5 | 23 | 0.0 | 1.6 | 0.00 | 0.15 | 0.05 | 93 | 1004.7 |
| 20260505070402 | 5 | 23 | 0.0 | 0.0 | 0.00 | 0.15 | 0.05 | 92 | 1004.8 |
| 20260505065836 | 5 | 23 | 0.0 | 3.2 | 0.00 | 0.15 | 0.05 | 93 | 1004.6 |
| 20260505065628 | 5 | 23 | 0.0 | 3.2 | 0.00 | 0.15 | 0.05 | 92 | 1004.7 |
| 20260505065421 | 5 | 23 | 0.0 | 4.8 | 0.00 | 0.15 | 0.05 | 92 | 1004.6 |
| 20260505065217 | 5 | 23 | 0.0 | 4.8 | 0.00 | 0.15 | 0.05 | 92 | 1004.6 |
| 20260505064655 | 5 | 23 | 0.0 | 4.8 | 0.00 | 0.15 | 0.05 | 92 | 1004.6 |
| 20260505064448 | 5 | 23 | 0.0 | 4.8 | 0.00 | 0.15 | 0.05 | 92 | 1004.6 |
| 20260505064240 | 5 | 23 | 0.0 | 4.8 | 0.00 | 0.15 | 0.05 | 92 | 1004.7 |
| 20260505064036 | 5 | 23 | 0.0 | 4.8 | 0.00 | 0.15 | 0.05 | 92 | 1004.6 |
| 20260505063829 | 5 | 23 | 0.0 | 4.8 | 0.00 | 0.15 | 0.05 | 92 | 1004.7 |
| 20260505063623 | 5 | 23 | 0.0 | 4.8 | 0.10 | 0.15 | 0.05 | 92 | 1004.6 |
| 20260505063412 | 5 | 23 | 0.0 | 1.6 | 0.10 | 0.15 | 0.05 | 92 | 1004.6 |
| 20260505063210 | 5 | 23 | 0.0 | 0.0 | 0.10 | 0.15 | 0.05 | 92 | 1004.6 |
| 20260505063003 | 5 | 23 | 1.6 | 6.4 | 0.10 | 0.15 | 0.05 | 92 | 1004.5 |
| 20260505062438 | 5 | 23 | 1.6 | 6.4 | 0.10 | 0.15 | 0.05 | 92 | 1004.2 |
| 20260505062234 | 5 | 23 | 0.0 | 6.4 | 0.10 | 0.15 | 0.05 | 92 | 1004.2 |
| 20260505062027 | 5 | 23 | 0.0 | 6.4 | 0.10 | 0.13 | 0.03 | 92 | 1004.2 |
| 20260505061452 | 5 | 22 | 0.0 | 1.6 | 0.10 | 0.13 | 0.03 | 92 | 1004.8 |
| 20260505060926 | 5 | 22 | 1.6 | 9.7 | 0.10 | 0.10 | 0.03 | 91 | 1004.7 |
| 20260505060722 | 5 | 28 | 3.2 | 9.7 | 0.10 | 0.10 | 0.03 | 91 | 1004.7 |
| 20260505060519 | 5 | 29 | 3.2 | 9.7 | 0.00 | 0.10 | 0.00 | 91 | 1004.7 |
| 20260505060310 | 5 | 29 | 3.2 | 9.7 | 0.00 | 0.10 | 0.00 | 91 | 1004.6 |
| 20260505060108 | 5 | 29 | 3.2 | 9.7 | 0.00 | 0.10 | 0.00 | 91 | 1004.6 |
| 20260505055900 | 5 | 54 | 1.6 | 9.7 | 0.00 | 0.10 | 0.10 | 91 | 1004.8 |
| 20260505055332 | 5 | 294 | 1.6 | 6.4 | 0.00 | 0.08 | 0.10 | 91 | 1005.1 |
| 20260505054805 | 5 | 286 | 1.6 | 8.0 | 0.00 | 0.08 | 0.08 | 91 | 1004.9 |
| 20260505054605 | 5 | 286 | 1.6 | 8.0 | 0.00 | 0.08 | 0.08 | 91 | 1005.0 |
| 20260505054405 | 5 | 286 | 1.6 | 8.0 | 0.00 | 0.08 | 0.08 | 90 | 1005.1 |
| 20260505054157 | 5 | 285 | 1.6 | 8.0 | 0.00 | 0.08 | 0.08 | 90 | 1004.9 |
| 20260505053950 | 5 | 285 | 3.2 | 8.0 | 0.00 | 0.08 | 0.08 | 90 | 1004.9 |
| 20260505053744 | 5 | 285 | 3.2 | 8.0 | 0.00 | 0.08 | 0.08 | 90 | 1004.9 |
| 20260505053534 | 5 | 285 | 3.2 | 8.0 | 0.00 | 0.08 | 0.08 | 90 | 1004.9 |
| 20260505053328 | 5 | 286 | 3.2 | 8.0 | 0.00 | 0.08 | 0.08 | 90 | 1004.9 |
| 20260505053122 | 5 | 288 | 1.6 | 8.0 | 0.00 | 0.08 | 0.08 | 89 | 1004.9 |
| 20260505052922 | 5 | 298 | 1.6 | 6.4 | 0.00 | 0.08 | 0.08 | 89 | 1005.0 |
| 20260505052719 | 5 | 313 | 1.6 | 6.4 | 0.00 | 0.08 | 0.08 | 89 | 1004.9 |
| 20260505052155 | 5 | 12 | 0.0 | 4.8 | 0.00 | 0.08 | 0.08 | 89 | 1004.8 |
| 20260505051955 | 5 | 12 | 0.0 | 4.8 | 0.00 | 0.08 | 0.08 | 88 | 1004.8 |
| 20260505051754 | 5 | 12 | 0.0 | 4.8 | 0.00 | 0.08 | 0.08 | 88 | 1004.9 |
| 20260505051553 | 5 | 12 | 0.0 | 0.0 | 0.00 | 0.08 | 0.08 | 88 | 1004.8 |
| 20260505051353 | 5 | 12 | 0.0 | 0.0 | 0.00 | 0.08 | 0.08 | 88 | 1004.9 |
| 20260505051147 | 5 | 12 | 0.0 | 3.2 | 0.00 | 0.08 | 0.08 | 88 | 1004.9 |
| 20260505050944 | 5 | 12 | 0.0 | 3.2 | 0.00 | 0.08 | 0.08 | 88 | 1004.9 |
| 20260505050733 | 5 | 12 | 1.6 | 8.0 | 0.00 | 0.08 | 0.08 | 88 | 1004.7 |
| 20260505050530 | 5 | 12 | 3.2 | 8.0 | 0.00 | 0.08 | 0.08 | 88 | 1004.7 |
| 20260505050327 | 5 | 12 | 3.2 | 8.0 | 0.00 | 0.08 | 0.08 | 88 | 1004.6 |
| 20260505050117 | 5 | 11 | 3.2 | 8.0 | 0.00 | 0.08 | 0.08 | 88 | 1004.5 |
| 20260505041602 | 5 | 5 | 3.2 | 11.3 | 0.00 | 0.08 | 0.08 | 87 | 1003.8 |
| 20260505041357 | 5 | 5 | 3.2 | 11.3 | 0.00 | 0.08 | 0.08 | 87 | 1003.8 |
| 20260505040836 | 5 | 5 | 4.8 | 11.3 | 0.00 | 0.08 | 0.08 | 87 | 1003.7 |
| 20260505040626 | 5 | 5 | 4.8 | 11.3 | 0.00 | 0.08 | 0.08 | 87 | 1003.6 |
| 20260505040425 | 5 | 5 | 4.8 | 11.3 | 0.00 | 0.08 | 0.08 | 87 | 1003.5 |
| 20260505040224 | 5 | 5 | 4.8 | 11.3 | 0.00 | 0.08 | 0.08 | 87 | 1003.6 |
| 20260505040023 | 5 | 33 | 4.8 | 11.3 | 0.00 | 0.08 | 0.08 | 87 | 1003.6 |
| 20260505035822 | 5 | 29 | 4.8 | 11.3 | 0.00 | 0.08 | 0.08 | 87 | 1003.5 |
| 20260505035623 | 5 | 346 | 3.2 | 9.7 | 0.00 | 0.08 | 0.08 | 87 | 1003.6 |
| 20260505035418 | 5 | 346 | 3.2 | 9.7 | 0.00 | 0.08 | 0.08 | 87 | 1003.5 |
| 20260505035207 | 5 | 24 | 3.2 | 9.7 | 0.00 | 0.08 | 0.08 | 87 | 1003.6 |
| 20260505035001 | 5 | 11 | 3.2 | 8.0 | 0.00 | 0.08 | 0.08 | 87 | 1003.8 |
| 20260505034756 | 5 | 316 | 3.2 | 8.0 | 0.00 | 0.08 | 0.08 | 87 | 1003.9 |
| 20260505034555 | 5 | 312 | 3.2 | 8.0 | 0.00 | 0.08 | 0.08 | 87 | 1003.9 |
| 20260505034346 | 5 | 307 | 3.2 | 8.0 | 0.00 | 0.08 | 0.08 | 87 | 1003.9 |
| 20260505034140 | 5 | 331 | 3.2 | 8.0 | 0.00 | 0.08 | 0.08 | 86 | 1003.9 |
| 20260505033935 | 5 | 325 | 4.8 | 14.5 | 0.00 | 0.08 | 0.08 | 86 | 1003.9 |
| 20260505033731 | 5 | 323 | 4.8 | 14.5 | 0.00 | 0.08 | 0.08 | 86 | 1003.8 |
| 20260505033526 | 5 | 342 | 4.8 | 14.5 | 0.00 | 0.05 | 0.08 | 86 | 1003.7 |
| 20260505033004 | 5 | 355 | 8.0 | 14.5 | 0.00 | 0.05 | 0.05 | 86 | 1003.6 |
| 20260505032758 | 5 | 9 | 8.0 | 14.5 | 0.00 | 0.05 | 0.05 | 86 | 1003.6 |
| 20260505032552 | 5 | 5 | 8.0 | 14.5 | 0.00 | 0.05 | 0.05 | 86 | 1003.6 |
| 20260505032035 | 5 | 12 | 6.4 | 14.5 | 0.00 | 0.05 | 0.05 | 86 | 1003.6 |
| 20260505031834 | 5 | 334 | 4.8 | 11.3 | 0.00 | 0.05 | 0.05 | 86 | 1003.7 |
| 20260505031628 | 5 | 325 | 4.8 | 9.7 | 0.00 | 0.05 | 0.05 | 86 | 1003.8 |
| 20260505031416 | 5 | 341 | 3.2 | 9.7 | 0.00 | 0.05 | 0.05 | 86 | 1003.8 |
| 20260505031210 | 5 | 348 | 1.6 | 8.0 | 0.00 | 0.05 | 0.05 | 86 | 1003.7 |
| 20260505031007 | 5 | 323 | 1.6 | 8.0 | 0.00 | 0.05 | 0.05 | 86 | 1003.6 |
| 20260505030443 | 5 | 305 | 1.6 | 6.4 | 0.00 | 0.05 | 0.05 | 86 | 1003.7 |
| 20260505030238 | 5 | 305 | 1.6 | 6.4 | 0.00 | 0.05 | 0.05 | 86 | 1003.7 |
| 20260505030033 | 5 | 305 | 1.6 | 6.4 | 0.00 | 0.05 | 0.05 | 86 | 1003.7 |
| 20260505025831 | 5 | 333 | 1.6 | 6.4 | 0.00 | 0.05 | 0.05 | 85 | 1003.6 |
| 20260505025629 | 5 | 333 | 1.6 | 6.4 | 0.00 | 0.05 | 0.05 | 85 | 1003.6 |
| 20260505025426 | 5 | 333 | 1.6 | 6.4 | 0.00 | 0.05 | 0.05 | 85 | 1003.6 |
| 20260505025225 | 5 | 338 | 1.6 | 6.4 | 0.00 | 0.05 | 0.05 | 85 | 1003.6 |
| 20260505025024 | 5 | 317 | 1.6 | 6.4 | 0.00 | 0.05 | 0.05 | 86 | 1003.6 |
| 20260505024817 | 5 | 32 | 0.0 | 4.8 | 0.00 | 0.05 | 0.05 | 86 | 1003.6 |
| 20260505024251 | 5 | 32 | 0.0 | 4.8 | 0.00 | 0.05 | 0.05 | 85 | 1003.4 |
| 20260505024050 | 6 | 32 | 0.0 | 4.8 | 0.00 | 0.05 | 0.05 | 85 | 1003.4 |
| 20260505023846 | 6 | 32 | 0.0 | 1.6 | 0.00 | 0.05 | 0.05 | 85 | 1003.4 |
| 20260505023640 | 6 | 32 | 0.0 | 1.6 | 0.00 | 0.05 | 0.05 | 85 | 1003.3 |
| 20260505023437 | 6 | 32 | 0.0 | 1.6 | 0.00 | 0.05 | 0.05 | 84 | 1003.2 |
| 20260505023235 | 6 | 32 | 0.0 | 1.6 | 0.00 | 0.05 | 0.05 | 84 | 1003.2 |
| 20260505023026 | 6 | 32 | 0.0 | 12.9 | 0.00 | 0.05 | 0.05 | 83 | 1003.2 |
| 20260505022826 | 6 | 32 | 0.0 | 12.9 | 0.00 | 0.05 | 0.05 | 82 | 1003.1 |
| 20260505022301 | 6 | 32 | 1.6 | 12.9 | 0.00 | 0.05 | 0.05 | 82 | 1003.2 |
| 20260505022052 | 6 | 32 | 3.2 | 12.9 | 0.00 | 0.05 | 0.05 | 81 | 1003.2 |
| 20260505021851 | 6 | 32 | 3.2 | 12.9 | 0.00 | 0.05 | 0.05 | 81 | 1003.4 |
| 20260505021649 | 6 | 32 | 4.8 | 12.9 | 0.00 | 0.05 | 0.05 | 81 | 1003.3 |
| 20260505021117 | 6 | 33 | 3.2 | 9.7 | 0.00 | 0.05 | 0.05 | 80 | 1003.3 |
| 20260505015903 | 7 | 5 | 3.2 | 14.5 | 0.15 | 0.05 | 0.05 | 77 | 1003.3 |
| 20260505015654 | 7 | 5 | 3.2 | 14.5 | 0.20 | 0.05 | 0.05 | 76 | 1003.2 |
| 20260505015449 | 7 | 5 | 4.8 | 14.5 | 0.20 | 0.05 | 0.05 | 76 | 1003.2 |
| 20260505015246 | 7 | 9 | 4.8 | 14.5 | 0.20 | 0.05 | 0.05 | 75 | 1003.3 |
| 20260505015040 | 7 | 9 | 6.4 | 14.5 | 0.20 | 0.03 | 0.05 | 75 | 1003.2 |
| 20260505014831 | 7 | 19 | 6.4 | 14.5 | 0.00 | 0.03 | 0.03 | 73 | 1003.2 |
| 20260505014628 | 7 | 355 | 8.0 | 14.5 | 0.00 | 0.03 | 0.03 | 73 | 1003.1 |
| 20260505014424 | 7 | 22 | 6.4 | 20.9 | 0.00 | 0.00 | 0.03 | 72 | 1003.0 |
| 20260505014221 | 8 | 32 | 8.0 | 20.9 | 0.00 | 0.00 | 0.00 | 71 | 1003.0 |
| 20260505014022 | 8 | 51 | 8.0 | 20.9 | 0.00 | 0.00 | 0.00 | 70 | 1002.9 |
| 20260505013823 | 8 | 350 | 8.0 | 20.9 | 0.00 | 0.00 | 0.00 | 68 | 1003.2 |
| 20260505013620 | 8 | 355 | 8.0 | 20.9 | 0.00 | 0.00 | 0.00 | 67 | 1003.3 |
| 20260505013420 | 8 | 10 | 9.7 | 20.9 | 0.00 | 0.00 | 0.00 | 66 | 1003.2 |
| 20260505013211 | 8 | 19 | 9.7 | 20.9 | 0.00 | 0.00 | 0.00 | 64 | 1003.2 |
| 20260505013008 | 8 | 300 | 11.3 | 20.9 | 0.00 | 0.00 | 0.00 | 62 | 1003.3 |
| 20260505012758 | 9 | 321 | 9.7 | 20.9 | 0.00 | 0.00 | 0.00 | 60 | 1003.2 |
| 20260505012553 | 9 | 21 | 9.7 | 20.9 | 0.00 | 0.00 | 0.00 | 59 | 1003.3 |
| 20260505012347 | 9 | 277 | 8.0 | 16.1 | 0.00 | 0.00 | 0.00 | 58 | 1002.9 |
| 20260505012145 | 9 | 286 | 8.0 | 16.1 | 0.00 | 0.00 | 0.00 | 57 | 1002.7 |
| 20260505011938 | 9 | 277 | 8.0 | 14.5 | 0.00 | 0.00 | 0.00 | 56 | 1002.8 |
| 20260505011736 | 9 | 279 | 8.0 | 14.5 | 0.00 | 0.00 | 0.00 | 56 | 1002.8 |
| 20260505011529 | 9 | 276 | 8.0 | 14.5 | 0.00 | 0.00 | 0.00 | 55 | 1002.8 |
| 20260505011002 | 10 | 270 | 8.0 | 14.5 | 0.00 | 0.00 | 0.00 | 54 | 1002.5 |
| 20260505010752 | 10 | 281 | 6.4 | 14.5 | 0.00 | 0.00 | 0.00 | 54 | 1002.5 |
| 20260505010543 | 10 | 284 | 6.4 | 14.5 | 0.00 | 0.00 | 0.00 | 54 | 1002.2 |
| 20260505010018 | 10 | 310 | 8.0 | 14.5 | 0.00 | 0.00 | 0.00 | 52 | 1002.0 |
| 20260505005125 | 11 | 0 | 8.0 | 22.5 | 0.00 | 0.00 | 0.00 | 48 | 1001.7 |
| 20260505004914 | 11 | 355 | 8.0 | 22.5 | 0.00 | 0.00 | 0.00 | 48 | 1001.8 |
| 20260505004705 | 11 | 15 | 8.0 | 22.5 | 0.00 | 0.00 | 0.00 | 48 | 1001.6 |
| 20260505004504 | 11 | 5 | 8.0 | 22.5 | 0.00 | 0.00 | 0.00 | 47 | 1001.4 |
| 20260505003307 | 11 | 346 | 8.0 | 17.7 | 0.00 | 0.00 | 0.00 | 46 | 1001.4 |
| 20260505003106 | 11 | 345 | 8.0 | 17.7 | 0.00 | 0.00 | 0.00 | 46 | 1001.4 |
| 20260505002903 | 11 | 347 | 9.7 | 24.1 | 0.00 | 0.00 | 0.00 | 46 | 1001.4 |
| 20260505002655 | 11 | 322 | 11.3 | 24.1 | 0.00 | 0.00 | 0.00 | 45 | 1001.3 |
| 20260505002451 | 11 | 238 | 11.3 | 24.1 | 0.00 | 0.00 | 0.00 | 45 | 1001.3 |
| 20260505002250 | 12 | 338 | 11.3 | 24.1 | 0.00 | 0.00 | 0.00 | 45 | 1001.2 |
| 20260505002042 | 12 | 346 | 11.3 | 24.1 | 0.00 | 0.00 | 0.00 | 44 | 1001.2 |
| 20260505001838 | 12 | 355 | 11.3 | 24.1 | 0.00 | 0.00 | 0.00 | 44 | 1001.2 |
| 20260505001636 | 12 | 335 | 9.7 | 24.1 | 0.00 | 0.00 | 0.00 | 43 | 1001.3 |
| 20260505001429 | 12 | 348 | 9.7 | 24.1 | 0.00 | 0.00 | 0.00 | 43 | 1001.4 |
| 20260505001227 | 12 | 26 | 9.7 | 24.1 | 0.00 | 0.00 | 0.00 | 41 | 1001.4 |
| 20260505001023 | 12 | 36 | 9.7 | 24.1 | 0.00 | 0.00 | 0.00 | 41 | 1001.4 |
| 20260505000505 | 12 | 15 | 8.0 | 19.3 | 0.00 | 0.00 | 0.00 | 41 | 1001.2 |
| 20260505000306 | 12 | 24 | 8.0 | 19.3 | 0.00 | 0.00 | 0.00 | 41 | 1001.1 |
| 20260505000107 | 12 | 40 | 8.0 | 22.5 | 0.00 | 0.00 | 0.00 | 42 | 1001.2 |
| 20260504235215 | 12 | 50 | 9.7 | 22.5 | 0.00 | 0.00 | 0.00 | 43 | 1001.2 |
| 20260504235013 | 12 | 22 | 9.7 | 22.5 | 0.00 | 0.00 | 0.00 | 42 | 1001.2 |
| 20260504234809 | 12 | 28 | 9.7 | 22.5 | 0.00 | 0.00 | 0.00 | 42 | 1001.2 |
| 20260504234606 | 12 | 15 | 9.7 | 22.5 | 0.00 | 0.00 | 0.00 | 43 | 1001.1 |
| 20260504234359 | 12 | 19 | 9.7 | 22.5 | 0.00 | 0.00 | 0.00 | 42 | 1001.2 |
| 20260504234157 | 12 | 29 | 8.0 | 22.5 | 0.00 | 0.00 | 0.00 | 42 | 1001.2 |
| 20260504233948 | 12 | 346 | 9.7 | 22.5 | 0.00 | 0.00 | 0.00 | 43 | 1001.3 |
| 20260504233739 | 12 | 19 | 11.3 | 22.5 | 0.00 | 0.00 | 0.00 | 42 | 1001.3 |
| 20260504233537 | 12 | 9 | 11.3 | 22.5 | 0.00 | 0.00 | 0.00 | 41 | 1001.2 |
| 20260504233333 | 12 | 61 | 11.3 | 22.5 | 0.00 | 0.00 | 0.00 | 41 | 1001.1 |
| 20260504233127 | 13 | 21 | 9.7 | 22.5 | 0.00 | 0.00 | 0.00 | 42 | 1001.2 |
| 20260504232927 | 13 | 29 | 9.7 | 22.5 | 0.00 | 0.00 | 0.00 | 41 | 1001.4 |
| 20260504232722 | 13 | 63 | 9.7 | 19.3 | 0.00 | 0.00 | 0.00 | 41 | 1001.3 |
| 20260504232517 | 13 | 340 | 9.7 | 16.1 | 0.00 | 0.00 | 0.00 | 40 | 1001.2 |
| 20260504232312 | 12 | 30 | 9.7 | 16.1 | 0.00 | 0.00 | 0.00 | 39 | 1001.3 |
| 20260504232110 | 12 | 351 | 9.7 | 30.6 | 0.00 | 0.00 | 0.00 | 40 | 1001.1 |
| 20260504231908 | 12 | 348 | 9.7 | 30.6 | 0.00 | 0.00 | 0.00 | 41 | 1001.1 |
| 20260504231659 | 12 | 351 | 11.3 | 30.6 | 0.00 | 0.00 | 0.00 | 42 | 1001.0 |
| 20260504231455 | 12 | 355 | 12.9 | 30.6 | 0.00 | 0.00 | 0.00 | 43 | 1001.0 |
| 20260504231253 | 12 | 338 | 12.9 | 30.6 | 0.00 | 0.00 | 0.00 | 43 | 1001.0 |
| 20260504230042 | 13 | 25 | 9.7 | 29.0 | 0.00 | 0.00 | 0.00 | 40 | 1000.9 |
| 20260504225833 | 13 | 327 | 8.0 | 29.0 | 0.00 | 0.00 | 0.00 | 39 | 1000.8 |
| 20260504225629 | 13 | 309 | 9.7 | 29.0 | 0.00 | 0.00 | 0.00 | 38 | 1000.8 |
| 20260504225427 | 13 | 282 | 9.7 | 29.0 | 0.00 | 0.00 | 0.00 | 38 | 1000.8 |
| 20260504225222 | 13 | 310 | 11.3 | 29.0 | 0.00 | 0.00 | 0.00 | 39 | 1000.8 |
| 20260504225015 | 13 | 332 | 12.9 | 29.0 | 0.00 | 0.00 | 0.00 | 38 | 1000.8 |
| 20260504224813 | 13 | 275 | 12.9 | 29.0 | 0.00 | 0.00 | 0.00 | 38 | 1000.6 |
| 20260504224605 | 13 | 333 | 12.9 | 29.0 | 0.00 | 0.00 | 0.00 | 39 | 1000.8 |
| 20260504224406 | 13 | 280 | 11.3 | 29.0 | 0.00 | 0.00 | 0.00 | 36 | 1000.9 |
| 20260504224204 | 13 | 347 | 11.3 | 27.4 | 0.00 | 0.00 | 0.00 | 36 | 1000.8 |
| 20260504224001 | 13 | 315 | 9.7 | 24.1 | 0.00 | 0.00 | 0.00 | 35 | 1000.9 |
| 20260504223801 | 14 | 288 | 8.0 | 19.3 | 0.00 | 0.00 | 0.00 | 35 | 1000.7 |
| 20260504223551 | 14 | 180 | 8.0 | 19.3 | 0.00 | 0.00 | 0.00 | 32 | 1000.6 |
| 20260504223349 | 14 | 111 | 6.4 | 19.3 | 0.00 | 0.00 | 0.00 | 33 | 1000.9 |
| 20260504222827 | 14 | 254 | 3.2 | 8.0 | 0.00 | 0.00 | 0.00 | 32 | 1000.7 |
| 20260504222257 | 15 | 254 | 3.2 | 8.0 | 0.00 | 0.00 | 0.00 | 33 | 1000.7 |
| 20260504222052 | 15 | 254 | 3.2 | 14.5 | 0.00 | 0.00 | 0.00 | 33 | 1000.6 |
| 20260504221845 | 15 | 238 | 3.2 | 14.5 | 0.00 | 0.00 | 0.00 | 32 | 1000.5 |
| 20260504221637 | 15 | 198 | 3.2 | 14.5 | 0.00 | 0.00 | 0.00 | 31 | 1000.6 |
| 20260504221428 | 15 | 201 | 3.2 | 14.5 | 0.00 | 0.00 | 0.00 | 32 | 1000.6 |
| 20260504221222 | 15 | 201 | 3.2 | 14.5 | 0.00 | 0.00 | 0.00 | 33 | 1000.6 |
| 20260504221013 | 15 | 200 | 3.2 | 14.5 | 0.00 | 0.00 | 0.00 | 33 | 1000.7 |
| 20260504220806 | 15 | 207 | 3.2 | 14.5 | 0.00 | 0.00 | 0.00 | 34 | 1000.6 |
| 20260504220557 | 15 | 207 | 3.2 | 14.5 | 0.00 | 0.00 | 0.00 | 33 | 1000.7 |
| 20260504220347 | 15 | 112 | 3.2 | 14.5 | 0.00 | 0.00 | 0.00 | 34 | 1000.7 |
| 20260504220141 | 16 | 287 | 1.6 | 9.7 | 0.00 | 0.00 | 0.00 | 32 | 1000.5 |
| 20260504215940 | 16 | 215 | 1.6 | 9.7 | 0.00 | 0.00 | 0.00 | 33 | 1000.6 |
| 20260504215739 | 16 | 275 | 1.6 | 9.7 | 0.00 | 0.00 | 0.00 | 31 | 1000.6 |
| 20260504215528 | 16 | 134 | 1.6 | 14.5 | 0.00 | 0.00 | 0.00 | 28 | 1000.6 |
| 20260504214958 | 16 | 65 | 4.8 | 14.5 | 0.00 | 0.00 | 0.00 | 33 | 1000.5 |
| 20260504214757 | 16 | 65 | 6.4 | 14.5 | 0.00 | 0.00 | 0.00 | 29 | 1000.5 |
| 20260504214232 | 16 | 14 | 8.0 | 14.5 | 0.00 | 0.00 | 0.00 | 29 | 1000.4 |
| 20260504214031 | 16 | 33 | 8.0 | 14.5 | 0.00 | 0.00 | 0.00 | 29 | 1000.4 |
| 20260504213513 | 16 | 76 | 4.8 | 12.9 | 0.00 | 0.00 | 0.00 | 28 | 1000.4 |
| 20260504212942 | 16 | 323 | 3.2 | 14.5 | 0.00 | 0.00 | 0.00 | 31 | 1000.3 |
| 20260504212740 | 16 | 295 | 4.8 | 14.5 | 0.00 | 0.00 | 0.00 | 30 | 1000.4 |
| 20260504212536 | 16 | 292 | 6.4 | 14.5 | 0.00 | 0.00 | 0.00 | 28 | 1000.4 |
| 20260504212329 | 16 | 292 | 6.4 | 14.5 | 0.00 | 0.00 | 0.00 | 27 | 1000.4 |
| 20260504212122 | 16 | 313 | 8.0 | 14.5 | 0.00 | 0.00 | 0.00 | 28 | 1000.4 |
| 20260504211913 | 16 | 340 | 8.0 | 14.5 | 0.00 | 0.00 | 0.00 | 27 | 1000.4 |
| 20260504211712 | 16 | 327 | 8.0 | 14.5 | 0.00 | 0.00 | 0.00 | 27 | 1000.3 |
| 20260504211503 | 16 | 303 | 8.0 | 14.5 | 0.00 | 0.00 | 0.00 | 27 | 1000.4 |
| 20260504211300 | 16 | 5 | 8.0 | 14.5 | 0.00 | 0.00 | 0.00 | 27 | 1000.4 |
| 20260504211059 | 16 | 21 | 6.4 | 12.9 | 0.00 | 0.00 | 0.00 | 30 | 1000.3 |
| 20260504210855 | 16 | 22 | 6.4 | 12.9 | 0.00 | 0.00 | 0.00 | 26 | 1000.3 |
| 20260504210653 | 16 | 33 | 4.8 | 11.3 | 0.00 | 0.00 | 0.00 | 27 | 1000.4 |
| 20260504210448 | 16 | 19 | 3.2 | 11.3 | 0.00 | 0.00 | 0.00 | 27 | 1000.4 |
| 20260504205927 | 16 | 197 | 1.6 | 9.7 | 0.00 | 0.00 | 0.00 | 26 | 1000.2 |
| 20260504205718 | 16 | 197 | 1.6 | 9.7 | 0.00 | 0.00 | 0.00 | 28 | 1000.2 |
| 20260504205517 | 16 | 197 | 3.2 | 20.9 | 0.00 | 0.00 | 0.00 | 25 | 1000.3 |
| 20260504205314 | 16 | 197 | 4.8 | 20.9 | 0.00 | 0.00 | 0.00 | 25 | 1000.3 |
| 20260504205108 | 16 | 197 | 6.4 | 20.9 | 0.00 | 0.00 | 0.00 | 26 | 1000.3 |
| 20260504204908 | 16 | 197 | 8.0 | 20.9 | 0.00 | 0.00 | 0.00 | 25 | 1000.3 |
| 20260504204352 | 16 | 281 | 11.3 | 20.9 | 0.00 | 0.00 | 0.00 | 25 | 1000.3 |
| 20260504204152 | 17 | 285 | 9.7 | 20.9 | 0.00 | 0.00 | 0.00 | 26 | 1000.4 |
| 20260504203950 | 17 | 300 | 8.0 | 20.9 | 0.00 | 0.00 | 0.00 | 26 | 1000.4 |
| 20260504203741 | 17 | 267 | 6.4 | 20.9 | 0.00 | 0.00 | 0.00 | 26 | 1000.5 |
| 20260504203216 | 17 | 187 | 4.8 | 19.3 | 0.00 | 0.00 | 0.00 | 26 | 1000.6 |
| 20260504203007 | 17 | 182 | 4.8 | 12.9 | 0.00 | 0.00 | 0.00 | 27 | 1000.6 |
| 20260504202801 | 16 | 150 | 4.8 | 12.9 | 0.00 | 0.00 | 0.00 | 25 | 1000.6 |
| 20260504202600 | 16 | 155 | 4.8 | 12.9 | 0.00 | 0.00 | 0.00 | 25 | 1000.7 |
| 20260504202350 | 16 | 193 | 4.8 | 12.9 | 0.00 | 0.00 | 0.00 | 26 | 1000.6 |
| 20260504202149 | 16 | 90 | 4.8 | 12.9 | 0.00 | 0.00 | 0.00 | 29 | 1000.6 |
| 20260504201945 | 16 | 57 | 3.2 | 12.9 | 0.00 | 0.00 | 0.00 | 28 | 1000.6 |
| 20260504201742 | 16 | 16 | 3.2 | 11.3 | 0.00 | 0.00 | 0.00 | 28 | 1000.6 |
| 20260504201534 | 16 | 23 | 1.6 | 11.3 | 0.00 | 0.00 | 0.00 | 28 | 1000.7 |
| 20260504201330 | 16 | 257 | 1.6 | 8.0 | 0.00 | 0.00 | 0.00 | 28 | 1000.8 |
| 20260504200805 | 16 | 256 | 1.6 | 14.5 | 0.00 | 0.00 | 0.00 | 26 | 1000.9 |
| 20260504200245 | 16 | 256 | 4.8 | 14.5 | 0.00 | 0.00 | 0.00 | 24 | 1000.9 |
| 20260504200041 | 16 | 256 | 6.4 | 14.5 | 0.00 | 0.00 | 0.00 | 27 | 1001.0 |
| 20260504195146 | 16 | 248 | 3.2 | 11.3 | 0.00 | 0.00 | 0.00 | 25 | 1001.0 |
| 20260504194940 | 16 | 263 | 3.2 | 9.7 | 0.00 | 0.00 | 0.00 | 26 | 1001.0 |
| 20260504194738 | 16 | 335 | 1.6 | 9.7 | 0.00 | 0.00 | 0.00 | 28 | 1001.0 |
| 20260504194528 | 16 | 328 | 1.6 | 8.0 | 0.00 | 0.00 | 0.00 | 29 | 1001.0 |
| 20260504194002 | 16 | 34 | 3.2 | 8.0 | 0.00 | 0.00 | 0.00 | 27 | 1001.3 |
| 20260504193438 | 16 | 35 | 4.8 | 16.1 | 0.00 | 0.00 | 0.00 | 26 | 1001.1 |
| 20260504192912 | 16 | 32 | 4.8 | 16.1 | 0.00 | 0.00 | 0.00 | 28 | 1001.2 |
| 20260504192707 | 16 | 51 | 4.8 | 24.1 | 0.00 | 0.00 | 0.00 | 30 | 1001.1 |
| 20260504192500 | 16 | 40 | 4.8 | 24.1 | 0.00 | 0.00 | 0.00 | 30 | 1001.1 |
| 20260504192254 | 16 | 42 | 6.4 | 24.1 | 0.00 | 0.00 | 0.00 | 29 | 1001.1 |
| 20260504192049 | 16 | 42 | 6.4 | 24.1 | 0.00 | 0.00 | 0.00 | 28 | 1001.1 |
| 20260504191518 | 16 | 69 | 9.7 | 24.1 | 0.00 | 0.00 | 0.00 | 26 | 1001.1 |
| 20260504191315 | 16 | 43 | 11.3 | 24.1 | 0.00 | 0.00 | 0.00 | 27 | 1001.1 |
| 20260504191115 | 16 | 44 | 11.3 | 24.1 | 0.00 | 0.00 | 0.00 | 27 | 1001.1 |
| 20260504190908 | 16 | 71 | 11.3 | 24.1 | 0.00 | 0.00 | 0.00 | 28 | 1001.2 |
| 20260504190709 | 16 | 350 | 11.3 | 22.5 | 0.00 | 0.00 | 0.00 | 30 | 1001.1 |
| 20260504190506 | 16 | 75 | 9.7 | 19.3 | 0.00 | 0.00 | 0.00 | 30 | 1001.1 |
| 20260504190307 | 16 | 38 | 9.7 | 19.3 | 0.00 | 0.00 | 0.00 | 29 | 1001.2 |
| 20260504190106 | 16 | 49 | 8.0 | 19.3 | 0.00 | 0.00 | 0.00 | 30 | 1001.2 |
| 20260504185856 | 15 | 26 | 6.4 | 19.3 | 0.00 | 0.00 | 0.00 | 28 | 1001.3 |
| 20260504185656 | 15 | 40 | 8.0 | 19.3 | 0.00 | 0.00 | 0.00 | 30 | 1001.3 |
| 20260504185456 | 15 | 17 | 9.7 | 19.3 | 0.00 | 0.00 | 0.00 | 29 | 1001.4 |
| 20260504185256 | 15 | 27 | 9.7 | 19.3 | 0.00 | 0.00 | 0.00 | 31 | 1001.4 |
| 20260504185054 | 15 | 348 | 11.3 | 19.3 | 0.00 | 0.00 | 0.00 | 29 | 1001.4 |
| 20260504184533 | 15 | 28 | 9.7 | 19.3 | 0.00 | 0.00 | 0.00 | 30 | 1001.6 |
| 20260504184333 | 15 | 25 | 6.4 | 16.1 | 0.00 | 0.00 | 0.00 | 29 | 1001.7 |
| 20260504184129 | 15 | 332 | 4.8 | 16.1 | 0.00 | 0.00 | 0.00 | 29 | 1001.7 |
| 20260504183918 | 15 | 284 | 4.8 | 14.5 | 0.00 | 0.00 | 0.00 | 28 | 1001.8 |
| 20260504183041 | 14 | 345 | 11.3 | 32.2 | 0.00 | 0.00 | 0.00 | 31 | 1001.9 |
| 20260504182841 | 14 | 345 | 12.9 | 32.2 | 0.00 | 0.00 | 0.00 | 29 | 1002.0 |
| 20260504182634 | 15 | 355 | 12.9 | 32.2 | 0.00 | 0.00 | 0.00 | 29 | 1002.0 |
| 20260504182430 | 15 | 296 | 11.3 | 32.2 | 0.00 | 0.00 | 0.00 | 29 | 1002.2 |
| 20260504182228 | 15 | 261 | 9.7 | 32.2 | 0.00 | 0.00 | 0.00 | 28 | 1002.1 |
| 20260504182020 | 15 | 337 | 8.0 | 32.2 | 0.00 | 0.00 | 0.00 | 27 | 1001.9 |
| 20260504181816 | 15 | 332 | 4.8 | 32.2 | 0.00 | 0.00 | 0.00 | 28 | 1002.1 |
| 20260504181611 | 15 | 292 | 4.8 | 9.7 | 0.00 | 0.00 | 0.00 | 27 | 1002.0 |
| 20260504181410 | 15 | 291 | 3.2 | 9.7 | 0.00 | 0.00 | 0.00 | 27 | 1001.9 |
| 20260504181204 | 15 | 290 | 3.2 | 11.3 | 0.00 | 0.00 | 0.00 | 27 | 1001.9 |
| 20260504180959 | 15 | 289 | 1.6 | 11.3 | 0.00 | 0.00 | 0.00 | 27 | 1001.9 |
| 20260504180756 | 15 | 229 | 1.6 | 11.3 | 0.00 | 0.00 | 0.00 | 28 | 1001.9 |
| 20260504180553 | 15 | 228 | 3.2 | 11.3 | 0.00 | 0.00 | 0.00 | 29 | 1001.9 |
| 20260504180343 | 15 | 190 | 3.2 | 11.3 | 0.00 | 0.00 | 0.00 | 28 | 1001.9 |
| 20260504180139 | 15 | 257 | 3.2 | 11.3 | 0.00 | 0.00 | 0.00 | 29 | 1002.0 |
| 20260504175937 | 15 | 257 | 4.8 | 11.3 | 0.00 | 0.00 | 0.00 | 25 | 1002.1 |
| 20260504175726 | 15 | 264 | 4.8 | 11.3 | 0.00 | 0.00 | 0.00 | 25 | 1002.2 |
| 20260504175520 | 15 | 248 | 4.8 | 11.3 | 0.00 | 0.00 | 0.00 | 27 | 1002.1 |
| 20260504175320 | 15 | 213 | 4.8 | 11.3 | 0.00 | 0.00 | 0.00 | 25 | 1002.2 |
| 20260504174754 | 15 | 257 | 6.4 | 17.7 | 0.00 | 0.00 | 0.00 | 26 | 1002.3 |
| 20260504174548 | 15 | 204 | 6.4 | 17.7 | 0.00 | 0.00 | 0.00 | 29 | 1002.4 |
| 20260504174345 | 15 | 254 | 8.0 | 17.7 | 0.00 | 0.00 | 0.00 | 27 | 1002.4 |
| 20260504174136 | 15 | 264 | 6.4 | 20.9 | 0.00 | 0.00 | 0.00 | 29 | 1002.4 |
| 20260504173926 | 15 | 274 | 4.8 | 20.9 | 0.00 | 0.00 | 0.00 | 31 | 1002.4 |
| 20260504173717 | 15 | 264 | 4.8 | 20.9 | 0.00 | 0.00 | 0.00 | 30 | 1002.6 |
| 20260504173507 | 15 | 254 | 6.4 | 20.9 | 0.00 | 0.00 | 0.00 | 29 | 1002.7 |
| 20260504173307 | 15 | 250 | 8.0 | 20.9 | 0.00 | 0.00 | 0.00 | 32 | 1002.7 |
| 20260504173100 | 15 | 250 | 9.7 | 22.5 | 0.00 | 0.00 | 0.00 | 31 | 1002.8 |
| 20260504172855 | 15 | 262 | 11.3 | 22.5 | 0.00 | 0.00 | 0.00 | 31 | 1002.8 |
| 20260504172650 | 15 | 238 | 12.9 | 22.5 | 0.00 | 0.00 | 0.00 | 30 | 1002.9 |
| 20260504172446 | 15 | 252 | 12.9 | 22.5 | 0.00 | 0.00 | 0.00 | 31 | 1003.0 |
| 20260504171922 | 15 | 269 | 12.9 | 27.4 | 0.00 | 0.00 | 0.00 | 34 | 1003.0 |
| 20260504171721 | 14 | 282 | 14.5 | 27.4 | 0.00 | 0.00 | 0.00 | 33 | 1002.9 |
| 20260504171152 | 14 | 225 | 14.5 | 30.6 | 0.00 | 0.00 | 0.00 | 33 | 1003.1 |
| 20260504170952 | 14 | 248 | 14.5 | 30.6 | 0.00 | 0.00 | 0.00 | 34 | 1003.1 |
| 20260504170743 | 14 | 284 | 14.5 | 30.6 | 0.00 | 0.00 | 0.00 | 35 | 1003.1 |
| 20260504170543 | 14 | 277 | 16.1 | 30.6 | 0.00 | 0.00 | 0.00 | 35 | 1003.1 |
| 20260504160402 | 15 | 249 | 9.7 | 19.3 | 0.00 | 0.00 | 0.00 | 35 | 1003.6 |
| 20260504160156 | 15 | 236 | 9.7 | 19.3 | 0.00 | 0.00 | 0.00 | 34 | 1003.7 |
| 20260504151037 | 13 | 230 | 14.5 | 30.6 | 0.00 | 0.00 | 0.00 | 35 | 1003.7 |
| 20260504150832 | 13 | 246 | 14.5 | 30.6 | 0.00 | 0.00 | 0.00 | 35 | 1003.7 |
| 20260504150631 | 13 | 263 | 14.5 | 30.6 | 0.00 | 0.00 | 0.00 | 37 | 1003.7 |
| 20260504150424 | 13 | 284 | 14.5 | 30.6 | 0.00 | 0.00 | 0.00 | 37 | 1003.7 |
| 20260504150212 | 13 | 292 | 16.1 | 30.6 | 0.00 | 0.00 | 0.00 | 37 | 1003.8 |
| 20260504141223 | 11 | 259 | 11.3 | 22.5 | 0.00 | 0.00 | 0.00 | 39 | 1003.7 |
| 20260504141023 | 11 | 260 | 11.3 | 22.5 | 0.00 | 0.00 | 0.00 | 41 | 1003.8 |
| 20260504140815 | 11 | 248 | 11.3 | 22.5 | 0.00 | 0.00 | 0.00 | 40 | 1003.8 |
| 20260504140616 | 11 | 234 | 9.7 | 22.5 | 0.00 | 0.00 | 0.00 | 39 | 1003.7 |
| 20260504140410 | 11 | 272 | 9.7 | 22.5 | 0.00 | 0.00 | 0.00 | 41 | 1003.7 |
| 20260504140204 | 11 | 298 | 9.7 | 22.5 | 0.00 | 0.00 | 0.00 | 41 | 1003.7 |
| 20260504130733 | 9 | 246 | 8.0 | 12.9 | 0.00 | 0.00 | 0.00 | 45 | 1004.2 |
| 20260504130528 | 9 | 238 | 6.4 | 12.9 | 0.00 | 0.00 | 0.00 | 46 | 1004.2 |
| 20260504130321 | 9 | 263 | 8.0 | 12.9 | 0.00 | 0.00 | 0.00 | 45 | 1004.1 |
| 20260504130120 | 9 | 248 | 8.0 | 12.9 | 0.00 | 0.00 | 0.00 | 44 | 1004.1 |
| 20260504120259 | 2 | 322 | 1.6 | 6.4 | 0.00 | 0.00 | 0.00 | 72 | 1004.1 |
| 20260504110535 | 1 | 355 | 0.0 | 0.0 | 0.00 | 0.00 | 0.00 | 73 | 1004.2 |
| 20260504110335 | 1 | 355 | 0.0 | 0.0 | 0.00 | 0.00 | 0.00 | 72 | 1004.2 |
| 20260504110129 | 1 | 355 | 0.0 | 0.0 | 0.00 | 0.00 | 0.00 | 72 | 1004.2 |
| 20260504100508 | 2 | 355 | 0.0 | 0.0 | 0.00 | 0.00 | 0.00 | 71 | 1004.1 |
| 20260504100308 | 2 | 355 | 0.0 | 0.0 | 0.00 | 0.00 | 0.00 | 70 | 1004.1 |
| 20260504100104 | 2 | 355 | 0.0 | 1.6 | 0.00 | 0.00 | 0.00 | 69 | 1004.1 |
| 20260504081458 | 2 | 355 | 0.0 | 0.0 | 0.00 | 0.00 | 0.00 | 71 | 1004.6 |
| 20260504081256 | 2 | 355 | 0.0 | 0.0 | 0.00 | 0.00 | 0.00 | 71 | 1004.7 |
| 20260504081056 | 2 | 355 | 0.0 | 0.0 | 0.00 | 0.00 | 0.00 | 71 | 1004.7 |
| 20260504080845 | 2 | 355 | 0.0 | 1.6 | 0.00 | 0.00 | 0.00 | 71 | 1004.7 |
| 20260504080324 | 2 | 355 | 0.0 | 0.0 | 0.00 | 0.00 | 0.00 | 72 | 1004.8 |
| 20260504080123 | 2 | 355 | 0.0 | 1.6 | 0.00 | 0.00 | 0.00 | 72 | 1004.9 |